Platte River (Nebraska), Leshara (06796500)

StateNebraskaLatestUnknown (2190 cfs)
RiverPlatte RiverRatingObservedEstimated
Updated2026-05-05 8:00 (35 minutes ago)Flood - The river is flooding. Obstacles can be treacherous or deadly. The river should be avoided at this stage for casual trips and definitely for the inexperienced. Trips should be attempted only with protective gear and equipment.Flood(none)(none)
Discharge2190 cfs (median: 6250 cfs)High - The river is high and potentially dangerous, especially for the young and / or inexperienced. Normal stream obstacles are sometimes difficult to navigate. Extended distances can be attempted, but canoe travel may not be advisable.High(none)(none)
Height3.89 feetGood - Conditions are ideal for a canoe or kayak. Boats typically will drag on fewer than one-quarter of riffles, if at all, and portages are unnecessary or rare. Normal float lengths can be attempted without a problem.Good(none)(none)
TrendSteady (falling over 24 hours)Low - River is low but can still be floated. Some riffles are okay but most come with significant dragging and might need a portage. Float lengths should be reduced to accommodate low flow, dragging, and portages.Low(none)(none)
USGSExternal icon USGS Site (External icon Duck Duck Go Maps)Poor - River is too low to float comfortably. Most or all riffles will drag or must be portaged and some obstacles (such as slick shelf rock) cause undue problems. Avoid the river at this stage for casual paddling trips.Poor(none)(none)

Trending Data

Plot Image

Trips for Platte River (Nebraska), Leshara (06796500)

DateStartEndDistanceConditionDischargeHeightFishingDetails

A total of 0 rows are displayed.

Condition Descriptions

Fishing Conditions

Fish Species

Notes

Classic Trip List

The classic River Trips application is still available for use. It is updated with the new system using a data retrofit. It is no longer maintained. The original River Trips application is no longer updated (as of 1 Dec 2016) but can be checked for errors or for the condition of the data before it was converted to the new system.

Gauge Data Table

ObservationHeightDischargeMaximum
Discharge
Minimum
Discharge
Mean
Discharge
P05P10P20P25P50
(Median)
P75P80P90P95
2026-05-05 08:00 3.89 2190 14600 (2016) 2270 (2004) 6220 2370 2710 3840 4240 6250 7010 7570 10900 12900
2026-05-05 07:00 3.89 2190 14600 (2016) 2270 (2004) 6220 2370 2710 3840 4240 6250 7010 7570 10900 12900
2026-05-05 06:00 3.90 2220 14600 (2016) 2270 (2004) 6220 2370 2710 3840 4240 6250 7010 7570 10900 12900
2026-05-05 05:00 3.90 2220 14600 (2016) 2270 (2004) 6220 2370 2710 3840 4240 6250 7010 7570 10900 12900
2026-05-05 04:00 3.88 2170 14600 (2016) 2270 (2004) 6220 2370 2710 3840 4240 6250 7010 7570 10900 12900
2026-05-05 03:00 3.86 2110 14600 (2016) 2270 (2004) 6220 2370 2710 3840 4240 6250 7010 7570 10900 12900
2026-05-05 02:00 3.86 2110 14600 (2016) 2270 (2004) 6220 2370 2710 3840 4240 6250 7010 7570 10900 12900
2026-05-05 01:00 3.85 2080 14600 (2016) 2270 (2004) 6220 2370 2710 3840 4240 6250 7010 7570 10900 12900
2026-05-05 00:00 3.84 2060 14600 (2016) 2270 (2004) 6220 2370 2710 3840 4240 6250 7010 7570 10900 12900
2026-05-04 23:00 3.85 2080 14600 (2016) 2270 (2004) 6220 2370 2710 3840 4240 6250 7010 7570 10900 12900
2026-05-04 22:00 3.84 2060 16000 (2016) 2490 (2023) 6170 2510 2880 3770 4470 6150 7100 7650 10200 13600
2026-05-04 21:00 3.87 2140 16000 (2016) 2490 (2023) 6170 2510 2880 3770 4470 6150 7100 7650 10200 13600
2026-05-04 20:00 3.87 2140 16000 (2016) 2490 (2023) 6170 2510 2880 3770 4470 6150 7100 7650 10200 13600
2026-05-04 19:00 3.88 2170 16000 (2016) 2490 (2023) 6170 2510 2880 3770 4470 6150 7100 7650 10200 13600
2026-05-04 18:00 3.89 2190 16000 (2016) 2490 (2023) 6170 2510 2880 3770 4470 6150 7100 7650 10200 13600
2026-05-04 17:00 3.90 2220 16000 (2016) 2490 (2023) 6170 2510 2880 3770 4470 6150 7100 7650 10200 13600
2026-05-04 16:00 3.90 2220 16000 (2016) 2490 (2023) 6170 2510 2880 3770 4470 6150 7100 7650 10200 13600
2026-05-04 15:00 3.90 2220 16000 (2016) 2490 (2023) 6170 2510 2880 3770 4470 6150 7100 7650 10200 13600
2026-05-04 14:00 3.92 2280 16000 (2016) 2490 (2023) 6170 2510 2880 3770 4470 6150 7100 7650 10200 13600
2026-05-04 13:00 3.93 2310 16000 (2016) 2490 (2023) 6170 2510 2880 3770 4470 6150 7100 7650 10200 13600
2026-05-04 12:00 3.93 2310 16000 (2016) 2490 (2023) 6170 2510 2880 3770 4470 6150 7100 7650 10200 13600
2026-05-04 11:00 3.91 2250 16000 (2016) 2490 (2023) 6170 2510 2880 3770 4470 6150 7100 7650 10200 13600
2026-05-04 10:00 3.92 2280 16000 (2016) 2490 (2023) 6170 2510 2880 3770 4470 6150 7100 7650 10200 13600
2026-05-04 09:00 3.92 2280 16000 (2016) 2490 (2023) 6170 2510 2880 3770 4470 6150 7100 7650 10200 13600
2026-05-04 08:00 3.93 2310 16000 (2016) 2490 (2023) 6170 2510 2880 3770 4470 6150 7100 7650 10200 13600
2026-05-04 07:00 3.92 2280 16000 (2016) 2490 (2023) 6170 2510 2880 3770 4470 6150 7100 7650 10200 13600
2026-05-04 06:00 3.92 2280 16000 (2016) 2490 (2023) 6170 2510 2880 3770 4470 6150 7100 7650 10200 13600
2026-05-04 05:00 3.93 2310 16000 (2016) 2490 (2023) 6170 2510 2880 3770 4470 6150 7100 7650 10200 13600
2026-05-04 04:00 3.92 2280 16000 (2016) 2490 (2023) 6170 2510 2880 3770 4470 6150 7100 7650 10200 13600
2026-05-04 03:00 3.91 2250 16000 (2016) 2490 (2023) 6170 2510 2880 3770 4470 6150 7100 7650 10200 13600
2026-05-04 02:00 3.91 2250 16000 (2016) 2490 (2023) 6170 2510 2880 3770 4470 6150 7100 7650 10200 13600
2026-05-04 01:00 3.91 2250 16000 (2016) 2490 (2023) 6170 2510 2880 3770 4470 6150 7100 7650 10200 13600
2026-05-04 00:00 3.90 2220 16000 (2016) 2490 (2023) 6170 2510 2880 3770 4470 6150 7100 7650 10200 13600
2026-05-03 23:00 3.89 2190 16000 (2016) 2490 (2023) 6170 2510 2880 3770 4470 6150 7100 7650 10200 13600
2026-05-03 22:00 3.89 2190 16700 (2016) 2450 (2004) 6020 2500 2620 3590 4500 6140 7290 7380 8140 13100
2026-05-03 21:00 3.87 2140 16700 (2016) 2450 (2004) 6020 2500 2620 3590 4500 6140 7290 7380 8140 13100
2026-05-03 20:00 3.89 2190 16700 (2016) 2450 (2004) 6020 2500 2620 3590 4500 6140 7290 7380 8140 13100
2026-05-03 19:00 3.88 2170 16700 (2016) 2450 (2004) 6020 2500 2620 3590 4500 6140 7290 7380 8140 13100
2026-05-03 18:00 3.89 2190 16700 (2016) 2450 (2004) 6020 2500 2620 3590 4500 6140 7290 7380 8140 13100
2026-05-03 17:00 3.89 2190 16700 (2016) 2450 (2004) 6020 2500 2620 3590 4500 6140 7290 7380 8140 13100
2026-05-03 16:00 3.91 2250 16700 (2016) 2450 (2004) 6020 2500 2620 3590 4500 6140 7290 7380 8140 13100
2026-05-03 15:00 3.91 2250 16700 (2016) 2450 (2004) 6020 2500 2620 3590 4500 6140 7290 7380 8140 13100
2026-05-03 14:00 3.92 2280 16700 (2016) 2450 (2004) 6020 2500 2620 3590 4500 6140 7290 7380 8140 13100
2026-05-03 13:00 3.92 2280 16700 (2016) 2450 (2004) 6020 2500 2620 3590 4500 6140 7290 7380 8140 13100
2026-05-03 12:00 3.92 2280 16700 (2016) 2450 (2004) 6020 2500 2620 3590 4500 6140 7290 7380 8140 13100
2026-05-03 11:00 3.91 2250 16700 (2016) 2450 (2004) 6020 2500 2620 3590 4500 6140 7290 7380 8140 13100
2026-05-03 10:00 3.89 2190 16700 (2016) 2450 (2004) 6020 2500 2620 3590 4500 6140 7290 7380 8140 13100
2026-05-03 09:00 3.85 2080 16700 (2016) 2450 (2004) 6020 2500 2620 3590 4500 6140 7290 7380 8140 13100
2026-05-03 08:00 3.84 2060 16700 (2016) 2450 (2004) 6020 2500 2620 3590 4500 6140 7290 7380 8140 13100
2026-05-03 07:00 3.82 2000 16700 (2016) 2450 (2004) 6020 2500 2620 3590 4500 6140 7290 7380 8140 13100
2026-05-03 06:00 3.81 1980 16700 (2016) 2450 (2004) 6020 2500 2620 3590 4500 6140 7290 7380 8140 13100
2026-05-03 05:00 3.80 1950 16700 (2016) 2450 (2004) 6020 2500 2620 3590 4500 6140 7290 7380 8140 13100
2026-05-03 04:00 3.78 1900 16700 (2016) 2450 (2004) 6020 2500 2620 3590 4500 6140 7290 7380 8140 13100
2026-05-03 03:00 3.77 1870 16700 (2016) 2450 (2004) 6020 2500 2620 3590 4500 6140 7290 7380 8140 13100
2026-05-03 02:00 3.78 1900 16700 (2016) 2450 (2004) 6020 2500 2620 3590 4500 6140 7290 7380 8140 13100
2026-05-03 01:00 3.76 1850 16700 (2016) 2450 (2004) 6020 2500 2620 3590 4500 6140 7290 7380 8140 13100
2026-05-03 00:00 3.76 1850 16700 (2016) 2450 (2004) 6020 2500 2620 3590 4500 6140 7290 7380 8140 13100
2026-05-02 23:00 3.75 1820 16700 (2016) 2450 (2004) 6020 2500 2620 3590 4500 6140 7290 7380 8140 13100
2026-05-02 22:00 3.76 1850 17400 (2016) 2290 (2004) 6210 2490 2980 3930 4490 6220 7200 7420 9240 13700
2026-05-02 21:00 3.76 1850 17400 (2016) 2290 (2004) 6210 2490 2980 3930 4490 6220 7200 7420 9240 13700
2026-05-02 20:00 3.77 1870 17400 (2016) 2290 (2004) 6210 2490 2980 3930 4490 6220 7200 7420 9240 13700
2026-05-02 19:00 3.77 1870 17400 (2016) 2290 (2004) 6210 2490 2980 3930 4490 6220 7200 7420 9240 13700
2026-05-02 18:00 3.78 1900 17400 (2016) 2290 (2004) 6210 2490 2980 3930 4490 6220 7200 7420 9240 13700
2026-05-02 17:00 3.78 1900 17400 (2016) 2290 (2004) 6210 2490 2980 3930 4490 6220 7200 7420 9240 13700
2026-05-02 16:00 3.79 1930 17400 (2016) 2290 (2004) 6210 2490 2980 3930 4490 6220 7200 7420 9240 13700
2026-05-02 15:00 3.80 1950 17400 (2016) 2290 (2004) 6210 2490 2980 3930 4490 6220 7200 7420 9240 13700
2026-05-02 14:00 3.82 2000 17400 (2016) 2290 (2004) 6210 2490 2980 3930 4490 6220 7200 7420 9240 13700
2026-05-02 13:00 3.84 2060 17400 (2016) 2290 (2004) 6210 2490 2980 3930 4490 6220 7200 7420 9240 13700
2026-05-02 12:00 3.86 2110 17400 (2016) 2290 (2004) 6210 2490 2980 3930 4490 6220 7200 7420 9240 13700
2026-05-02 11:00 3.88 2170 17400 (2016) 2290 (2004) 6210 2490 2980 3930 4490 6220 7200 7420 9240 13700
2026-05-02 10:00 3.91 2250 17400 (2016) 2290 (2004) 6210 2490 2980 3930 4490 6220 7200 7420 9240 13700
2026-05-02 09:00 3.94 2340 17400 (2016) 2290 (2004) 6210 2490 2980 3930 4490 6220 7200 7420 9240 13700
2026-05-02 08:00 3.96 2390 17400 (2016) 2290 (2004) 6210 2490 2980 3930 4490 6220 7200 7420 9240 13700
2026-05-02 07:00 3.99 2480 17400 (2016) 2290 (2004) 6210 2490 2980 3930 4490 6220 7200 7420 9240 13700
2026-05-02 06:00 4.02 2570 17400 (2016) 2290 (2004) 6210 2490 2980 3930 4490 6220 7200 7420 9240 13700
2026-05-02 05:00 4.05 2670 17400 (2016) 2290 (2004) 6210 2490 2980 3930 4490 6220 7200 7420 9240 13700
2026-05-02 04:00 4.09 2790 17400 (2016) 2290 (2004) 6210 2490 2980 3930 4490 6220 7200 7420 9240 13700
2026-05-02 03:00 4.12 2890 17400 (2016) 2290 (2004) 6210 2490 2980 3930 4490 6220 7200 7420 9240 13700
2026-05-02 02:00 4.16 3020 17400 (2016) 2290 (2004) 6210 2490 2980 3930 4490 6220 7200 7420 9240 13700
2026-05-02 01:00 4.17 3060 17400 (2016) 2290 (2004) 6210 2490 2980 3930 4490 6220 7200 7420 9240 13700
2026-05-02 00:00 4.22 3230 17400 (2016) 2290 (2004) 6210 2490 2980 3930 4490 6220 7200 7420 9240 13700
2026-05-01 23:00 4.26 3370 17400 (2016) 2290 (2004) 6210 2490 2980 3930 4490 6220 7200 7420 9240 13700
2026-05-01 22:00 4.27 3410 15800 (2016) 2170 (2023) 6000 2410 3160 4080 4420 5770 7200 7270 8330 12300
2026-05-01 21:00 4.28 3440 15800 (2016) 2170 (2023) 6000 2410 3160 4080 4420 5770 7200 7270 8330 12300
2026-05-01 20:00 4.31 3550 15800 (2016) 2170 (2023) 6000 2410 3160 4080 4420 5770 7200 7270 8330 12300
2026-05-01 19:00 4.30 3520 15800 (2016) 2170 (2023) 6000 2410 3160 4080 4420 5770 7200 7270 8330 12300
2026-05-01 18:00 4.27 3410 15800 (2016) 2170 (2023) 6000 2410 3160 4080 4420 5770 7200 7270 8330 12300
2026-05-01 17:00 4.23 3260 15800 (2016) 2170 (2023) 6000 2410 3160 4080 4420 5770 7200 7270 8330 12300
2026-05-01 16:00 4.16 3020 15800 (2016) 2170 (2023) 6000 2410 3160 4080 4420 5770 7200 7270 8330 12300
2026-05-01 15:00 4.08 2760 15800 (2016) 2170 (2023) 6000 2410 3160 4080 4420 5770 7200 7270 8330 12300
2026-05-01 14:00 3.99 2480 15800 (2016) 2170 (2023) 6000 2410 3160 4080 4420 5770 7200 7270 8330 12300
2026-05-01 13:00 3.92 2280 15800 (2016) 2170 (2023) 6000 2410 3160 4080 4420 5770 7200 7270 8330 12300
2026-05-01 12:00 3.89 2190 15800 (2016) 2170 (2023) 6000 2410 3160 4080 4420 5770 7200 7270 8330 12300
2026-05-01 11:00 3.90 2220 15800 (2016) 2170 (2023) 6000 2410 3160 4080 4420 5770 7200 7270 8330 12300
2026-05-01 10:00 3.90 2220 15800 (2016) 2170 (2023) 6000 2410 3160 4080 4420 5770 7200 7270 8330 12300
2026-05-01 09:00 3.93 2310 15800 (2016) 2170 (2023) 6000 2410 3160 4080 4420 5770 7200 7270 8330 12300
2026-05-01 08:00 3.97 2420 15800 (2016) 2170 (2023) 6000 2410 3160 4080 4420 5770 7200 7270 8330 12300
2026-05-01 07:00 4.02 2570 15800 (2016) 2170 (2023) 6000 2410 3160 4080 4420 5770 7200 7270 8330 12300
2026-05-01 06:00 4.06 2700 15800 (2016) 2170 (2023) 6000 2410 3160 4080 4420 5770 7200 7270 8330 12300
2026-05-01 05:00 4.11 2860 15800 (2016) 2170 (2023) 6000 2410 3160 4080 4420 5770 7200 7270 8330 12300
2026-05-01 04:00 4.16 3020 15800 (2016) 2170 (2023) 6000 2410 3160 4080 4420 5770 7200 7270 8330 12300
2026-05-01 03:00 4.19 3130 15800 (2016) 2170 (2023) 6000 2410 3160 4080 4420 5770 7200 7270 8330 12300
2026-05-01 02:00 4.22 3230 15800 (2016) 2170 (2023) 6000 2410 3160 4080 4420 5770 7200 7270 8330 12300
2026-05-01 01:00 4.26 3370 15800 (2016) 2170 (2023) 6000 2410 3160 4080 4420 5770 7200 7270 8330 12300
2026-05-01 00:00 4.29 3480 15800 (2016) 2170 (2023) 6000 2410 3160 4080 4420 5770 7200 7270 8330 12300
2026-04-30 23:00 4.30 3520 15800 (2016) 2170 (2023) 6000 2410 3160 4080 4420 5770 7200 7270 8330 12300
2026-04-30 22:00 4.33 3630 14100 (2016) 2350 (2023) 5930 2580 3490 4250 4590 4950 7060 7630 8700 12400
2026-04-30 21:00 4.33 3630 14100 (2016) 2350 (2023) 5930 2580 3490 4250 4590 4950 7060 7630 8700 12400
2026-04-30 20:00 4.32 3590 14100 (2016) 2350 (2023) 5930 2580 3490 4250 4590 4950 7060 7630 8700 12400
2026-04-30 19:00 4.30 3520 14100 (2016) 2350 (2023) 5930 2580 3490 4250 4590 4950 7060 7630 8700 12400
2026-04-30 18:00 4.26 3370 14100 (2016) 2350 (2023) 5930 2580 3490 4250 4590 4950 7060 7630 8700 12400
2026-04-30 17:00 4.19 3130 14100 (2016) 2350 (2023) 5930 2580 3490 4250 4590 4950 7060 7630 8700 12400
2026-04-30 16:00 4.10 2830 14100 (2016) 2350 (2023) 5930 2580 3490 4250 4590 4950 7060 7630 8700 12400
2026-04-30 15:00 3.99 2480 14100 (2016) 2350 (2023) 5930 2580 3490 4250 4590 4950 7060 7630 8700 12400
2026-04-30 14:00 3.89 2190 14100 (2016) 2350 (2023) 5930 2580 3490 4250 4590 4950 7060 7630 8700 12400
2026-04-30 13:00 3.83 2030 14100 (2016) 2350 (2023) 5930 2580 3490 4250 4590 4950 7060 7630 8700 12400
2026-04-30 12:00 3.82 2000 14100 (2016) 2350 (2023) 5930 2580 3490 4250 4590 4950 7060 7630 8700 12400
2026-04-30 11:00 3.82 2000 14100 (2016) 2350 (2023) 5930 2580 3490 4250 4590 4950 7060 7630 8700 12400
2026-04-30 10:00 3.85 2080 14100 (2016) 2350 (2023) 5930 2580 3490 4250 4590 4950 7060 7630 8700 12400
2026-04-30 09:00 3.89 2190 14100 (2016) 2350 (2023) 5930 2580 3490 4250 4590 4950 7060 7630 8700 12400
2026-04-30 08:00 3.94 2340 14100 (2016) 2350 (2023) 5930 2580 3490 4250 4590 4950 7060 7630 8700 12400
2026-04-30 07:00 3.98 2450 14100 (2016) 2350 (2023) 5930 2580 3490 4250 4590 4950 7060 7630 8700 12400
2026-04-30 06:00 4.03 2600 14100 (2016) 2350 (2023) 5930 2580 3490 4250 4590 4950 7060 7630 8700 12400
2026-04-30 05:00 4.07 2730 14100 (2016) 2350 (2023) 5930 2580 3490 4250 4590 4950 7060 7630 8700 12400
2026-04-30 04:00 4.12 2890 14100 (2016) 2350 (2023) 5930 2580 3490 4250 4590 4950 7060 7630 8700 12400
2026-04-30 03:00 4.16 3020 14100 (2016) 2350 (2023) 5930 2580 3490 4250 4590 4950 7060 7630 8700 12400
2026-04-30 02:00 4.21 3190 14100 (2016) 2350 (2023) 5930 2580 3490 4250 4590 4950 7060 7630 8700 12400
2026-04-30 01:00 4.24 3300 14100 (2016) 2350 (2023) 5930 2580 3490 4250 4590 4950 7060 7630 8700 12400
2026-04-30 00:00 4.25 3340 14100 (2016) 2350 (2023) 5930 2580 3490 4250 4590 4950 7060 7630 8700 12400
2026-04-29 23:00 4.27 3410 14100 (2016) 2350 (2023) 5930 2580 3490 4250 4590 4950 7060 7630 8700 12400
2026-04-29 22:00 4.28 3440 15600 (2016) 2780 (2023) 6210 2810 3310 4270 4500 5280 7330 7480 8930 14800
2026-04-29 21:00 4.32 3590 15600 (2016) 2780 (2023) 6210 2810 3310 4270 4500 5280 7330 7480 8930 14800
2026-04-29 20:00 4.31 3550 15600 (2016) 2780 (2023) 6210 2810 3310 4270 4500 5280 7330 7480 8930 14800
2026-04-29 19:00 4.31 3550 15600 (2016) 2780 (2023) 6210 2810 3310 4270 4500 5280 7330 7480 8930 14800
2026-04-29 18:00 4.28 3440 15600 (2016) 2780 (2023) 6210 2810 3310 4270 4500 5280 7330 7480 8930 14800
2026-04-29 17:00 4.21 3190 15600 (2016) 2780 (2023) 6210 2810 3310 4270 4500 5280 7330 7480 8930 14800
2026-04-29 16:00 4.13 2920 15600 (2016) 2780 (2023) 6210 2810 3310 4270 4500 5280 7330 7480 8930 14800
2026-04-29 15:00 4.03 2600 15600 (2016) 2780 (2023) 6210 2810 3310 4270 4500 5280 7330 7480 8930 14800
2026-04-29 14:00 3.93 2310 15600 (2016) 2780 (2023) 6210 2810 3310 4270 4500 5280 7330 7480 8930 14800
2026-04-29 13:00 3.86 2110 15600 (2016) 2780 (2023) 6210 2810 3310 4270 4500 5280 7330 7480 8930 14800
2026-04-29 12:00 3.81 1980 15600 (2016) 2780 (2023) 6210 2810 3310 4270 4500 5280 7330 7480 8930 14800
2026-04-29 11:00 3.82 2000 15600 (2016) 2780 (2023) 6210 2810 3310 4270 4500 5280 7330 7480 8930 14800
2026-04-29 10:00 3.83 2030 15600 (2016) 2780 (2023) 6210 2810 3310 4270 4500 5280 7330 7480 8930 14800
2026-04-29 09:00 3.85 2080 15600 (2016) 2780 (2023) 6210 2810 3310 4270 4500 5280 7330 7480 8930 14800
2026-04-29 08:00 3.90 2220 15600 (2016) 2780 (2023) 6210 2810 3310 4270 4500 5280 7330 7480 8930 14800
2026-04-29 07:00 3.94 2340 15600 (2016) 2780 (2023) 6210 2810 3310 4270 4500 5280 7330 7480 8930 14800
2026-04-29 06:00 3.99 2480 15600 (2016) 2780 (2023) 6210 2810 3310 4270 4500 5280 7330 7480 8930 14800
2026-04-29 05:00 4.03 2600 15600 (2016) 2780 (2023) 6210 2810 3310 4270 4500 5280 7330 7480 8930 14800
2026-04-29 04:00 4.06 2700 15600 (2016) 2780 (2023) 6210 2810 3310 4270 4500 5280 7330 7480 8930 14800
2026-04-29 03:00 4.13 2920 15600 (2016) 2780 (2023) 6210 2810 3310 4270 4500 5280 7330 7480 8930 14800
2026-04-29 02:00 4.16 3020 15600 (2016) 2780 (2023) 6210 2810 3310 4270 4500 5280 7330 7480 8930 14800
2026-04-29 01:00 4.19 3130 15600 (2016) 2780 (2023) 6210 2810 3310 4270 4500 5280 7330 7480 8930 14800
2026-04-29 00:00 4.19 3130 15600 (2016) 2780 (2023) 6210 2810 3310 4270 4500 5280 7330 7480 8930 14800
2026-04-28 23:00 4.19 3130 15600 (2016) 2780 (2023) 6210 2810 3310 4270 4500 5280 7330 7480 8930 14800
2026-04-28 22:00 4.17 3060 16100 (2007) 2560 (2022) 6300 2650 3140 4040 4380 5530 7880 8180 10800 13300
2026-04-28 21:00 4.13 2920 16100 (2007) 2560 (2022) 6300 2650 3140 4040 4380 5530 7880 8180 10800 13300
2026-04-28 20:00 4.06 2700 16100 (2007) 2560 (2022) 6300 2650 3140 4040 4380 5530 7880 8180 10800 13300
2026-04-28 19:00 3.95 2370 16100 (2007) 2560 (2022) 6300 2650 3140 4040 4380 5530 7880 8180 10800 13300
2026-04-28 18:00 3.85 2080 16100 (2007) 2560 (2022) 6300 2650 3140 4040 4380 5530 7880 8180 10800 13300
2026-04-28 17:00 3.76 1850 16100 (2007) 2560 (2022) 6300 2650 3140 4040 4380 5530 7880 8180 10800 13300
2026-04-28 16:00 3.70 1700 16100 (2007) 2560 (2022) 6300 2650 3140 4040 4380 5530 7880 8180 10800 13300
2026-04-28 15:00 3.68 1650 16100 (2007) 2560 (2022) 6300 2650 3140 4040 4380 5530 7880 8180 10800 13300
2026-04-28 14:00 3.68 1650 16100 (2007) 2560 (2022) 6300 2650 3140 4040 4380 5530 7880 8180 10800 13300
2026-04-28 13:00 3.68 1650 16100 (2007) 2560 (2022) 6300 2650 3140 4040 4380 5530 7880 8180 10800 13300
2026-04-28 12:00 3.70 1700 16100 (2007) 2560 (2022) 6300 2650 3140 4040 4380 5530 7880 8180 10800 13300
2026-04-28 11:00 3.75 1820 16100 (2007) 2560 (2022) 6300 2650 3140 4040 4380 5530 7880 8180 10800 13300
2026-04-28 10:00 3.80 1950 16100 (2007) 2560 (2022) 6300 2650 3140 4040 4380 5530 7880 8180 10800 13300
2026-04-28 09:00 3.85 2080 16100 (2007) 2560 (2022) 6300 2650 3140 4040 4380 5530 7880 8180 10800 13300
2026-04-28 08:00 3.90 2220 16100 (2007) 2560 (2022) 6300 2650 3140 4040 4380 5530 7880 8180 10800 13300
2026-04-28 07:00 3.95 2370 16100 (2007) 2560 (2022) 6300 2650 3140 4040 4380 5530 7880 8180 10800 13300
2026-04-28 06:00 4.01 2540 16100 (2007) 2560 (2022) 6300 2650 3140 4040 4380 5530 7880 8180 10800 13300
2026-04-28 05:00 4.02 2570 16100 (2007) 2560 (2022) 6300 2650 3140 4040 4380 5530 7880 8180 10800 13300
2026-04-28 04:00 4.09 2790 16100 (2007) 2560 (2022) 6300 2650 3140 4040 4380 5530 7880 8180 10800 13300
2026-04-28 03:00 4.15 2990 16100 (2007) 2560 (2022) 6300 2650 3140 4040 4380 5530 7880 8180 10800 13300
2026-04-28 02:00 4.17 3060 16100 (2007) 2560 (2022) 6300 2650 3140 4040 4380 5530 7880 8180 10800 13300
2026-04-28 01:00 4.24 3300 16100 (2007) 2560 (2022) 6300 2650 3140 4040 4380 5530 7880 8180 10800 13300
2026-04-28 00:00 4.26 3370 16100 (2007) 2560 (2022) 6300 2650 3140 4040 4380 5530 7880 8180 10800 13300
2026-04-27 23:00 4.23 3260 16100 (2007) 2560 (2022) 6300 2650 3140 4040 4380 5530 7880 8180 10800 13300

A total of 178 rows are displayed for years 1995 through 2024.